Irving, TX

4:06 AM CDT on July 26, 2016 (GMT -0500)
Dallas-Fort Worth International

Weather History for KDFW - February, 2014

Change the Weather History Date:

Sunday, February 2, 2014

  Actual Average Record
Temperature  
Mean Temperature 35 °F 47 °F  
Max Temperature 40 °F 58 °F 83 °F (1995)
Min Temperature 30 °F 37 °F 7 °F (1985)
Degree Days  
Heating Degree Days 30 18  
Month to date heating degree days 42 36  
Since 1 July heating degree days 1717 1541  
Cooling Degree Days 0 0  
Month to date cooling degree days 0 0  
Year to date cooling degree days 0 2  
Moisture  
Dew Point 27 °F    
Average Humidity 75    
Maximum Humidity 89    
Minimum Humidity 60    
Precipitation  
Precipitation 0.14 in 0.08 in 0.51 in (1943)
Month to date precipitation 0.14 0.16  
Year to date precipitation 0.47 2.29  
Snow  
Snow T in 0.10 in 1.50 in (1996)
Month to date snowfall T 0.1  
Since 1 July snowfall 2.1 0.6  
Snow Depth 0.00 in    
Sea Level Pressure  
Sea Level Pressure 30.15 in    
Wind  
Wind Speed 17 mph (North)    
Max Wind Speed 28 mph    
Max Gust Speed 33 mph    
Visibility 8 miles    
Events Rain    
T = Trace of Precipitation, MM = Missing Value Source: NWS Daily Summary

Daily Weather History Graph

Daily Weather History Graph

Search for Another Location

Airport or City:

Trip Planner

Search our weather history database for the weather conditions in past years. The results will help you decide how hot, cold, wet, or windy it might be!

Date:

Astronomy

Feb. 02, 2014 Rise Set
Actual Time 7:22 AM CST 6:01 PM CST
Civil Twilight 6:56 AM CST 6:27 PM CST
Nautical Twilight 6:27 AM CST 6:56 PM CST
Astronomical Twilight 5:58 AM CST 7:25 PM CST
Moon 9:02 AM CST (2/2) 9:32 PM CST (2/2)
Length of Visible Light 11h 30m
Length of Day
10h 39m
Waxing Crescent, 11% of the Moon is Illuminated
Feb 2
Waxing Crescent
Feb 6
First Quarter
Feb 14
Full
Feb 22
Last Quarter
Mar 1
New

Hourly Weather History & Observations

Time (CST) Temp. Windchill Dew Point Humidity Pressure Visibility Wind Dir Wind Speed Gust Speed Precip Events Conditions
12:53 AM 37.9 °F 28.2 °F 27.0 °F 65% 30.02 in 10.0 mi North 18.4 mph - N/A   Overcast
1:53 AM 37.9 °F 29.2 °F 27.0 °F 65% 30.05 in 10.0 mi North 15.0 mph - N/A   Overcast
2:11 AM 37.0 °F 27.0 °F 26.1 °F 65% 30.04 in 10.0 mi North 18.4 mph - N/A   Overcast
2:53 AM 37.0 °F 27.0 °F 26.1 °F 65% 30.04 in 10.0 mi North 18.4 mph 24.2 mph N/A   Overcast
3:21 AM 36.0 °F 25.6 °F 27.0 °F 70% 30.03 in 10.0 mi North 18.4 mph 24.2 mph N/A   Overcast
3:53 AM 36.0 °F 25.3 °F 27.0 °F 70% 30.06 in 10.0 mi North 19.6 mph - N/A   Overcast
4:53 AM 35.1 °F 24.5 °F 27.0 °F 72% 30.07 in 10.0 mi North 18.4 mph - N/A   Overcast
5:53 AM 35.1 °F 24.5 °F 27.0 °F 72% 30.08 in 10.0 mi North 18.4 mph - 0.00 in Rain Light Rain
6:53 AM 35.1 °F 24.8 °F 28.0 °F 76% 30.10 in 8.0 mi North 17.3 mph 24.2 mph 0.00 in   Overcast
7:53 AM 34.0 °F 23.0 °F 28.0 °F 79% 30.15 in 9.0 mi NNW 18.4 mph 23.0 mph 0.01 in Rain Light Rain
8:03 AM 32.0 °F 19.5 °F 28.0 °F 85% 30.13 in 10.0 mi North 21.9 mph - 0.00 in Rain Light Freezing Rain
8:15 AM 33.1 °F 20.6 °F 28.0 °F 82% 30.11 in 10.0 mi North 23.0 mph 28.8 mph 0.00 in Rain Light Rain
8:53 AM 33.1 °F 21.2 °F 28.0 °F 82% 30.14 in 10.0 mi North 20.7 mph 27.6 mph 0.00 in   Overcast
9:53 AM 34.0 °F 23.0 °F 28.9 °F 82% 30.15 in 9.0 mi North 18.4 mph - N/A   Overcast
10:53 AM 34.0 °F 24.2 °F 30.0 °F 85% 30.19 in 3.0 mi North 15.0 mph - 0.00 in Rain Light Rain
11:53 AM 34.0 °F 22.7 °F 28.9 °F 82% 30.16 in 7.0 mi North 19.6 mph - 0.00 in   Overcast
12:29 PM 34.0 °F 23.0 °F 30.0 °F 85% 30.14 in 8.0 mi North 18.4 mph - 0.00 in Rain Light Rain
12:53 PM 34.0 °F 23.8 °F 30.0 °F 85% 30.17 in 5.0 mi North 16.1 mph - 0.00 in Rain Rain
1:53 PM 34.0 °F 23.8 °F 30.0 °F 85% 30.15 in 9.0 mi North 16.1 mph - 0.03 in Rain Light Ice Pellets
2:06 PM 34.0 °F 23.8 °F 30.9 °F 89% 30.15 in 2.5 mi NNW 16.1 mph - 0.01 in Rain Ice Pellets
2:13 PM 33.1 °F 23.0 °F 30.0 °F 89% 30.16 in 2.5 mi NNW 15.0 mph - 0.02 in Rain Light Ice Pellets
2:23 PM 33.1 °F 22.2 °F 30.0 °F 89% 30.15 in 2.5 mi North 17.3 mph - 0.04 in Rain Heavy Ice Pellets
2:31 PM 33.1 °F 22.2 °F 30.0 °F 89% 30.14 in 2.5 mi North 17.3 mph - 0.07 in Rain Ice Pellets
2:43 PM 33.1 °F 21.9 °F 30.0 °F 89% 30.12 in 3.0 mi North 18.4 mph 25.3 mph 0.08 in Rain Rain
2:53 PM 34.0 °F 24.6 °F 30.0 °F 85% 30.15 in 3.0 mi North 13.8 mph - 0.10 in Rain Light Rain
3:25 PM 33.1 °F 20.6 °F 28.9 °F 85% 30.11 in 7.0 mi North 23.0 mph 31.1 mph 0.00 in Rain Light Rain
3:53 PM 30.9 °F 18.4 °F 28.0 °F 89% 30.17 in 8.0 mi NNW 20.7 mph - 0.00 in   Overcast
4:53 PM 30.0 °F 16.9 °F 26.1 °F 85% 30.18 in 8.0 mi NNW 21.9 mph - N/A   Overcast
5:53 PM 30.0 °F 17.9 °F 24.1 °F 79% 30.22 in 8.0 mi NNW 18.4 mph - N/A   Overcast
6:15 PM 30.0 °F 19.1 °F 24.1 °F 79% 30.22 in 9.0 mi North 15.0 mph - N/A   Overcast
6:53 PM 30.0 °F 19.5 °F 25.0 °F 82% 30.24 in 8.0 mi North 13.8 mph - N/A   Overcast
7:53 PM 30.9 °F 21.7 °F 25.0 °F 79% 30.25 in 10.0 mi North 11.5 mph - N/A   Overcast
8:53 PM 30.9 °F 21.2 °F 25.0 °F 79% 30.25 in 10.0 mi North 12.7 mph - N/A   Overcast
9:53 PM 30.9 °F 21.7 °F 25.0 °F 79% 30.27 in 10.0 mi NNW 11.5 mph - N/A   Overcast
10:15 PM 30.9 °F 21.7 °F 25.0 °F 79% 30.26 in 10.0 mi North 11.5 mph - N/A   Overcast
10:53 PM 30.9 °F 22.2 °F 25.0 °F 79% 30.27 in 10.0 mi North 10.4 mph - N/A   Overcast
11:53 PM 30.9 °F 21.2 °F 25.0 °F 79% 30.27 in 10.0 mi North 12.7 mph - N/A   Overcast